Location: Molveno
(46.1500°N, 10.9667°E)
Time: 07:42:39
(UTC+00:00)

SL-24 R/B - RUBIN 2 - Pass Details

Date: 05 July 2020
Orbit: 568 x 1027 km, 64.6° (Epoch: 05 August)

Event Time Altitude Azimuth Distance (km) Brightness Sun altitude
Rises 20:15:55 0° 202° (SSW) 3,392 7.1 -9.4°
Reaches altitude 10° 20:18:18 10° 199° (SSW) 2,525 6.4 -9.7°
Maximum altitude 20:24:09 62° 120° (ESE) 1,065 4.5 -10.4°
Drops below altitude 10° 20:30:38 10° 42° (NE) 2,783 7.0 -11.1°
Sets 20:33:21 0° 39° (NE) 3,764 7.7 -11.4°
